DWEW6128 Weather Reports


time (UTC)temp
F
wind
direction
speed
knots
gust
knots
rain 1hr
in
rain 24hr
in
rain mn
in
humidity
%
barometer
mb
20220627201153 84 199 2.6 2.6 0.00 0.00 0.00 46 1015.5
20220627200154 84 188 1.7 2.6 0.00 0.00 0.00 46 1015.4
20220627195150 84 167 1.7 4.3 0.00 0.00 0.00 45 1015.6
20220627194150 84 182 2.6 5.2 0.00 0.00 0.00 45 1015.4
20220627193151 84 143 1.7 2.6 0.00 0.00 0.00 44 1015.2
20220627192150 86 136 2.6 2.6 0.00 0.00 0.00 41 1015.1
20220627191152 87 90 0.9 2.6 0.00 0.00 0.00 39 1015.1
20220627190153 88 115 1.7 2.6 0.00 0.00 0.00 36 1014.8
20220627185151 88 87 0.9 2.6 0.00 0.00 0.00 35 1014.8
20220627184151 89 114 0.9 2.6 0.00 0.00 0.00 34 1014.6
20220627183152 90 90 1.7 2.6 0.00 0.00 0.00 33 1014.7
20220627182150 90 108 1.7 4.3 0.00 0.00 0.00 32 1014.7
20220627181150 91 91 1.7 4.3 0.00 0.00 0.00 32 1014.7
20220627180153 92 104 1.7 4.3 0.00 0.00 0.00 31 1014.7
20220627175150 92 93 1.7 4.3 0.00 0.00 0.00 30 1014.7
20220627174150 93 99 1.7 4.3 0.00 0.00 0.00 30 1014.6
20220627173150 93 98 2.6 4.3 0.00 0.00 0.00 29 1014.6
20220627172152 93 93 1.7 5.2 0.00 0.00 0.00 28 1014.6
20220627171152 94 85 4.3 6.1 0.00 0.00 0.00 28 1014.6
20220627170200 94 65 2.6 5.2 0.00 0.00 0.00 28 1014.6
20220627165151 94 78 2.6 6.1 0.00 0.00 0.00 28 1014.6
20220627164151 94 84 2.6 7.8 0.00 0.00 0.00 28 1014.6
20220627163150 94 93 4.3 8.7 0.00 0.00 0.00 27 1014.7
20220627162152 93 71 4.3 8.7 0.00 0.00 0.00 26 1014.7
20220627161152 94 77 4.3 8.7 0.00 0.00 0.00 26 1014.7
20220627160153 94 60 2.6 8.7 0.00 0.00 0.00 27 1014.7
20220627155151 94 68 5.2 8.7 0.00 0.00 0.00 27 1014.8
20220627154149 94 40 5.2 10.4 0.00 0.00 0.00 26 1014.8
20220627153153 95 53 2.6 10.4 0.00 0.00 0.00 27 1014.8
20220627152149 95 13 4.3 8.7 0.00 0.00 0.00 27 1014.9
20220627151150 94 50 5.2 10.4 0.00 0.00 0.00 28 1015.0
20220627150154 95 51 5.2 10.4 0.00 0.00 0.00 28 1015.1
20220627145151 95 97 5.2 7.8 0.00 0.00 0.00 27 1015.3
20220627144150 95 357 4.3 10.4 0.00 0.00 0.00 27 1015.3
20220627143150 96 91 2.6 8.7 0.00 0.00 0.00 27 1015.2
20220627142151 95 50 6.1 10.4 0.00 0.00 0.00 27 1015.2
20220627141150 96 98 6.1 10.4 0.00 0.00 0.00 27 1015.2
20220627140152 96 49 5.2 10.4 0.00 0.00 0.00 27 1015.2
20220627135150 96 13 4.3 10.4 0.00 0.00 0.00 28 1015.2
20220627134149 96 48 4.3 7.8 0.00 0.00 0.00 28 1015.2
20220627133150 96 24 2.6 8.7 0.00 0.00 0.00 28 1015.4
20220627132150 96 46 4.3 8.7 0.00 0.00 0.00 28 1015.4
20220627131149 96 69 4.3 8.7 0.00 0.00 0.00 28 1015.5
20220627130154 96 17 5.2 8.7 0.00 0.00 0.00 28 1015.5
20220627125150 97 59 2.6 7.8 0.00 0.00 0.00 29 1015.6
20220627124149 96 36 4.3 8.7 0.00 0.00 0.00 29 1015.5
20220627123150 97 290 1.7 7.0 0.00 0.00 0.00 29 1015.5
20220627122149 97 186 3.5 10.4 0.00 0.00 0.00 28 1015.6
20220627121150 96 53 3.5 10.4 0.00 0.00 0.00 29 1015.7
20220627120152 96 44 3.5 7.8 0.00 0.00 0.00 29 1015.7
20220627115150 95 23 5.2 8.7 0.00 0.00 0.00 29 1015.7
20220627114150 95 12 3.5 8.7 0.00 0.00 0.00 32 1015.8
20220627113149 94 19 2.6 10.4 0.00 0.00 0.00 32 1015.9
20220627112150 94 66 5.2 12.2 0.00 0.00 0.00 33 1015.9
20220627111150 96 342 3.5 8.7 0.00 0.00 0.00 33 1016.1
20220627110153 95 332 4.3 10.4 0.00 0.00 0.00 33 1016.1
20220627105149 95 17 4.3 7.8 0.00 0.00 0.00 34 1016.0
20220627104150 94 35 4.3 10.4 0.00 0.00 0.00 35 1016.2
20220627103149 94 310 5.2 8.7 0.00 0.00 0.00 35 1016.2
20220627102149 95 27 3.5 8.7 0.00 0.00 0.00 34 1016.6
20220627101151 95 20 2.6 7.8 0.00 0.00 0.00 34 1016.6
20220627100152 95 7 3.5 8.7 0.00 0.00 0.00 35 1016.5
20220627095150 94 323 2.6 11.3 0.00 0.00 0.00 35 1016.6
20220627094151 94 335 3.5 8.7 0.00 0.00 0.00 35 1016.7
20220627093150 95 265 2.6 7.0 0.00 0.00 0.00 34 1016.6
20220627092149 95 39 2.6 6.1 0.00 0.00 0.00 34 1016.6
20220627091151 94 353 1.7 6.1 0.00 0.00 0.00 35 1016.5
20220627090151 94 332 1.7 7.0 0.00 0.00 0.00 36 1016.3
20220627085149 94 70 1.7 5.2 0.00 0.00 0.00 36 1016.1
20220627084150 93 47 4.3 7.0 0.00 0.00 0.00 36 1016.0
20220627083150 92 63 2.6 7.0 0.00 0.00 0.00 36 1016.1
20220627082150 92 67 2.6 7.0 0.00 0.00 0.00 36 1016.4
20220627081149 92 59 2.6 7.0 0.00 0.00 0.00 36 1016.4
20220627080152 92 53 2.6 6.1 0.00 0.00 0.00 37 1016.4
20220627075149 92 41 1.7 4.3 0.00 0.00 0.00 37 1016.4
20220627074149 92 338 0.9 2.6 0.00 0.00 0.00 37 1016.4
20220627073151 91 47 1.7 2.6 0.00 0.00 0.00 38 1016.4
20220627072149 91 5 0.9 2.6 0.00 0.00 0.00 39 1016.2
20220627071153 90 73 0.9 2.6 0.00 0.00 0.00 40 1016.2
20220627070151 90 93 0.9 2.6 0.00 0.00 0.00 41 1016.2
20220627065150 89 59 0.9 1.7 0.00 0.00 0.00 43 1016.3
20220627064150 88 127 0.9 2.6 0.00 0.00 0.00 44 1016.2
20220627063150 87 61 0.9 2.6 0.00 0.00 0.00 45 1016.2
20220627062149 86 87 0.0 2.6 0.00 0.00 0.00 46 1016.2
20220627061149 85 136 0.0 1.7 0.00 0.00 0.00 47 1016.3
20220627060152 84 58 0.0 1.7 0.00 0.00 0.00 48 1016.2
20220627055150 83 58 0.9 2.6 0.00 0.00 0.00 50 1016.1
20220627054149 82 140 0.0 0.9 0.00 0.00 0.00 54 1016.1
20220627053150 80 140 0.0 1.7 0.00 0.00 0.00 55 1016.0
20220627052149 79 135 0.9 2.6 0.00 0.00 0.00 57 1015.9
20220627051150 78 122 0.9 1.7 0.00 0.00 0.00 60 1016.0
20220627050151 76 156 0.9 2.6 0.00 0.00 0.00 62 1016.0
20220627045149 75 149 1.7 2.6 0.00 0.00 0.00 63 1015.9
20220627044151 74 165 0.9 2.6 0.00 0.00 0.00 64 1015.8
20220627043149 73 139 0.9 2.6 0.00 0.00 0.00 65 1015.8
20220627042149 72 129 1.7 2.6 0.00 0.00 0.00 65 1015.8
20220627041149 73 137 1.7 2.6 0.00 0.00 0.00 63 1015.8
20220627040151 73 153 1.7 2.6 0.00 0.00 0.00 63 1015.8
20220627035151 73 141 1.7 2.6 0.00 0.00 0.00 62 1015.7
20220627034149 73 149 1.7 2.6 0.00 0.00 0.00 61 1015.7
20220627033151 74 117 0.9 2.6 0.00 0.00 0.00 60 1015.8
20220627032150 74 126 0.9 1.7 0.00 0.00 0.00 60 1015.8
20220627031149 74 91 0.9 1.7 0.00 0.00 0.00 60 1015.7
20220627030151 74 89 0.9 1.7 0.00 0.00 0.00 59 1015.6
20220627025149 75 89 0.9 1.7 0.00 0.00 0.00 57 1015.7
20220627024148 76 80 0.9 1.7 0.00 0.00 0.00 56 1015.7
20220627023148 77 203 0.9 2.6 0.00 0.00 0.00 55 1015.7
20220627022149 77 60 0.9 2.6 0.00 0.00 0.00 54 1015.3
20220627021148 78 6 1.7 2.6 0.00 0.00 0.00 53 1015.3
20220627020151 79 0 0.0 1.7 0.00 0.00 0.00 51 1015.4
20220627015148 79 12 0.9 4.3 0.00 0.00 0.00 50 1015.4
20220627014149 80 216 3.5 7.0 0.00 0.00 0.00 50 1015.3
20220627013149 80 223 2.6 7.0 0.00 0.00 0.00 50 1015.4
20220627012149 80 214 4.3 6.1 0.00 0.00 0.00 50 1015.4
20220627011150 80 209 2.6 6.1 0.00 0.00 0.00 50 1015.6
20220627010151 80 240 2.6 6.1 0.00 0.00 0.00 50 1015.7
20220627005148 80 217 2.6 6.1 0.00 0.00 0.00 50 1015.7
20220627004149 80 217 2.6 5.2 0.00 0.00 0.00 50 1015.7
20220627003148 80 221 2.6 6.1 0.00 0.00 0.00 50 1015.8
20220627002149 80 216 4.3 6.1 0.00 0.00 0.00 50 1015.8
20220627001149 80 226 4.3 6.1 0.00 0.00 0.00 50 1015.8
20220627000151 80 228 2.6 5.2 0.00 0.00 0.00 50 1015.8
20220626235149 80 199 1.7 5.2 0.00 0.00 0.00 49 1016.0
20220626234149 80 199 4.3 6.1 0.00 0.00 0.00 49 1016.0
20220626233150 80 210 3.5 6.1 0.00 0.00 0.00 49 1016.0
20220626232148 80 238 4.3 7.0 0.00 0.00 0.00 50 1016.1
20220626231148 79 218 5.2 7.0 0.00 0.00 0.00 50 1016.1
20220626230151 79 208 4.3 6.1 0.00 0.00 0.00 50 1016.2
20220626225148 79 230 4.3 7.0 0.00 0.00 0.00 50 1016.3
20220626224148 79 209 4.3 7.0 0.00 0.00 0.00 50 1016.2
20220626223150 79 209 3.5 6.1 0.00 0.00 0.00 50 1016.3
20220626222149 79 214 5.2 6.1 0.00 0.00 0.00 50 1016.4
20220626221122 79 219 4.3 5.2 0.00 0.00 0.00 50 1016.5
20220626220151 79 199 1.7 4.3 0.00 0.00 0.00 50 1016.6
20220626215149 79 203 1.7 2.6 0.00 0.00 0.00 50 1016.6
20220626214148 79 211 2.6 4.3 0.00 0.00 0.00 49 1016.5
20220626213149 79 215 2.6 4.3 0.00 0.00 0.00 49 1016.4
20220626212149 79 210 2.6 4.3 0.00 0.00 0.00 49 1016.5
20220626211149 79 205 2.6 6.1 0.00 0.00 0.00 48 1016.4
20220626210150 79 207 4.3 5.2 0.00 0.00 0.00 48 1016.4
20220626205148 79 187 2.6 4.3 0.00 0.00 0.00 48 1016.5
20220626204149 79 167 2.6 4.3 0.00 0.00 0.00 48 1016.5
20220626203148 79 191 3.5 5.2 0.00 0.00 0.00 48 1016.4
20220626202149 78 178 1.7 2.6 0.00 0.00 0.00 51 1016.3